Simultaneous Nadir Overpasses (SNOs) Predictions

Prediction of SNOs between GOES-15 and METOP-B Satellite Orbit:

Table of predicted SNOs for the next 14.0 days since TLE Epoch: 11/7/2025
Index Date Time (GOES-15) GOES-15 Lat,Lon METOP-B Lat,Lon Distance(km) Time Diff (sec)
1 11/08/2025 04:41:51 0.70, 61.64 -0.06, 64.96 378.92 80
2 11/09/2025 17:00:59 -0.70, 61.80 -1.01, 60.34 166.81 80
3 11/10/2025 16:37:46 -0.71, 61.83 0.09, 65.31 397.17 80
4 11/12/2025 04:56:48 0.70, 61.73 0.91, 60.70 116.98 80
5 11/13/2025 04:38:54 0.71, 61.74 -0.19, 65.67 447.69 80
6 11/14/2025 16:58:03 -0.70, 61.90 -0.87, 61.04 97.44 80
7 11/15/2025 16:34:48 -0.71, 61.92 0.18, 66.02 466.71 80
8 11/17/2025 04:53:51 0.69, 61.83 0.80, 61.41 48.32 80
9 11/19/2025 16:52:25 -0.69, 62.01 -0.74, 61.75 29.14 80
